When you browse on this site, cookies collect data to enhance your experience and personalize the content and advertising you see.
Visit our Privacy Policy to learn more. By continuing to use the site, you agree to this use of cookies and data.
  • In United Kingdom
  • List of Countries
  • For 7 days
  • Water Temperature
  • Weather Map
  • Weather Widgets
  • user-avatar
    Login

    Hourly Weather Sveti Vlas

    Today, 29 January, Wednesday

    Time Temperature Precipitation Wind Pressure Humidity
    00:00 +5°C° 0 mm 3 mps 752 mmHg 84%
    01:00 +5°C° 0 mm 3 mps 752 mmHg 84%
    02:00 +5°C° 0 mm 3 mps 751 mmHg 85%
    03:00 +5°C° 0 mm 3 mps 751 mmHg 86%
    04:00 +5°C° 0 mm 3 mps 750 mmHg 88%
    05:00 +5°C° 0 mm 4 mps 750 mmHg 89%
    06:00 +5°C° 0 mm 4 mps 750 mmHg 89%
    07:00 +5°C° 0 mm 4 mps 750 mmHg 88%
    08:00 +5°C° 0 mm 4 mps 749 mmHg 88%
    09:00 +7°C° 0 mm 4 mps 749 mmHg 83%
    10:00 +8°C° 0 mm 5 mps 749 mmHg 78%
    11:00 +10°C° 0 mm 6 mps 749 mmHg 74%
    12:00 +10°C° 0 mm 6 mps 749 mmHg 70%
    13:00 +11°C° 0 mm 6 mps 749 mmHg 66%
    14:00 +11°C° 0 mm 6 mps 749 mmHg 63%
    15:00 +10°C° 0 mm 5 mps 749 mmHg 66%
    16:00 +9°C° 0 mm 5 mps 750 mmHg 70%
    17:00 +8°C° 0 mm 4 mps 750 mmHg 73%
    18:00 +8°C° 0 mm 3 mps 750 mmHg 76%
    19:00 +8°C° 0 mm 2 mps 751 mmHg 78%
    20:00 +8°C° 0 mm 1 mps 751 mmHg 80%
    21:00 +8°C° 0 mm 1 mps 752 mmHg 80%
    22:00 +8°C° 0 mm 1 mps 752 mmHg 81%
    23:00 +8°C° 0 mm 1 mps 752 mmHg 82%

    Tomorrow, 30 January, Thursday

    Time Temperature Precipitation Wind Pressure Humidity
    00:00 +7°C° 0 mm 1 mps 752 mmHg 83%
    01:00 +7°C° 0 mm 1 mps 752 mmHg 85%
    02:00 +7°C° 0 mm 1 mps 752 mmHg 86%
    03:00 +6°C° 0 mm 2 mps 752 mmHg 85%
    04:00 +5°C° 0 mm 2 mps 752 mmHg 83%
    05:00 +5°C° 0 mm 2 mps 752 mmHg 82%
    06:00 +4°C° 0 mm 3 mps 753 mmHg 80%
    07:00 +4°C° 0 mm 4 mps 753 mmHg 79%
    08:00 +4°C° 0 mm 4 mps 753 mmHg 77%
    09:00 +5°C° 0 mm 5 mps 754 mmHg 70%
    10:00 +5°C° 0 mm 7 mps 754 mmHg 64%
    11:00 +5°C° 0 mm 8 mps 754 mmHg 57%
    12:00 +6°C° 0 mm 8 mps 754 mmHg 53%
    13:00 +6°C° 0 mm 8 mps 754 mmHg 50%
    14:00 +7°C° 0 mm 8 mps 755 mmHg 46%
    15:00 +6°C° 0 mm 7 mps 755 mmHg 49%
    16:00 +5°C° 0 mm 6 mps 755 mmHg 52%
    17:00 +6°C° 0 mm 5 mps 755 mmHg 56%
    18:00 +5°C° 0 mm 5 mps 755 mmHg 58%
    19:00 +4°C° 0 mm 4 mps 756 mmHg 60%
    20:00 +3°C° 0 mm 4 mps 756 mmHg 62%
    21:00 +3°C° 0 mm 4 mps 757 mmHg 64%
    22:00 +3°C° 0 mm 4 mps 757 mmHg 65%
    23:00 +1°C° 0 mm 4 mps 757 mmHg 66%

    Day after tomorrow, 31 January, Friday

    Time Temperature Precipitation Wind Pressure Humidity
    00:00 +1°C° 0 mm 4 mps 757 mmHg 67%
    01:00 +1°C° 0 mm 4 mps 757 mmHg 68%
    02:00 +1°C° 0 mm 4 mps 757 mmHg 69%
    03:00 +1°C° 0 mm 3 mps 757 mmHg 69%
    04:00 +1°C° 0 mm 3 mps 757 mmHg 69%
    05:00 +1°C° 0 mm 3 mps 756 mmHg 68%
    06:00 0°C° 0 mm 4 mps 756 mmHg 69%
    07:00 0°C° 0 mm 4 mps 756 mmHg 69%
    08:00 0°C° 0 mm 4 mps 756 mmHg 70%
    09:00 +3°C° 0 mm 4 mps 755 mmHg 64%
    10:00 +4°C° 0 mm 4 mps 755 mmHg 58%
    11:00 +6°C° 0 mm 5 mps 755 mmHg 53%
    12:00 +7°C° 0 mm 5 mps 754 mmHg 51%
    13:00 +9°C° 0 mm 6 mps 754 mmHg 49%
    14:00 +10°C° 0 mm 6 mps 753 mmHg 48%
    15:00 +9°C° 0 mm 6 mps 753 mmHg 50%
    16:00 +8°C° 0 mm 6 mps 752 mmHg 52%
    17:00 +8°C° 0 mm 6 mps 751 mmHg 54%
    18:00 +7°C° 0 mm 6 mps 751 mmHg 53%
    19:00 +6°C° 0 mm 7 mps 751 mmHg 51%
    20:00 +6°C° 0 mm 7 mps 751 mmHg 49%
    21:00 +6°C° 0 mm 7 mps 751 mmHg 54%
    22:00 +6°C° 0 mm 7 mps 751 mmHg 59%
    23:00 +5°C° 0 mm 7 mps 751 mmHg 63%

    1 February, Saturday

    Time Temperature Precipitation Wind Pressure Humidity
    00:00 +5°C° 0 mm 6 mps 752 mmHg 68%
    01:00 +6°C° 0 mm 5 mps 752 mmHg 74%
    02:00 +6°C° 0 mm 5 mps 753 mmHg 79%
    03:00 +6°C° 0 mm 5 mps 753 mmHg 81%
    04:00 +6°C° 0 mm 4 mps 754 mmHg 83%
    05:00 +6°C° 0 mm 4 mps 754 mmHg 85%
    06:00 +5°C° 0 mm 3 mps 755 mmHg 86%
    07:00 +5°C° 0 mm 3 mps 755 mmHg 87%
    08:00 +5°C° 0 mm 3 mps 756 mmHg 88%
    09:00 +8°C° 0 mm 3 mps 756 mmHg 81%
    10:00 +10°C° 0 mm 2 mps 756 mmHg 75%
    11:00 +12°C° 0 mm 2 mps 757 mmHg 68%
    12:00 +13°C° 0 mm 2 mps 757 mmHg 64%
    13:00 +14°C° 0 mm 2 mps 756 mmHg 61%
    14:00 +14°C° 0 mm 2 mps 756 mmHg 57%
    15:00 +14°C° 0 mm 2 mps 756 mmHg 61%
    16:00 +13°C° 0 mm 2 mps 756 mmHg 65%
    17:00 +11°C° 0 mm 3 mps 756 mmHg 68%
    18:00 +10°C° 0 mm 3 mps 756 mmHg 72%
    19:00 +9°C° 0 mm 3 mps 756 mmHg 76%
    20:00 +9°C° 0 mm 3 mps 756 mmHg 80%
    21:00 +8°C° 0 mm 3 mps 756 mmHg 81%
    22:00 +8°C° 0 mm 3 mps 756 mmHg 81%
    23:00 +8°C° 0 mm 3 mps 756 mmHg 82%

    2 February, Sunday

    Time Temperature Precipitation Wind Pressure Humidity
    00:00 +8°C° 0 mm 3 mps 755 mmHg 82%
    01:00 +8°C° 0 mm 2 mps 755 mmHg 82%
    02:00 +7°C° 0 mm 2 mps 755 mmHg 83%
    03:00 +7°C° 0 mm 2 mps 754 mmHg 84%
    04:00 +7°C° 0 mm 3 mps 754 mmHg 85%
    05:00 +7°C° 0 mm 3 mps 754 mmHg 86%
    06:00 +7°C° 0 mm 3 mps 754 mmHg 88%
    07:00 +5°C° 0 mm 3 mps 753 mmHg 90%
    08:00 +5°C° 0 mm 3 mps 753 mmHg 91%
    09:00 +8°C° 0 mm 3 mps 753 mmHg 84%
    10:00 +10°C° 0 mm 3 mps 753 mmHg 77%
    11:00 +11°C° 0 mm 4 mps 753 mmHg 70%
    12:00 +12°C° 0 mm 4 mps 753 mmHg 66%
    13:00 +13°C° 0 mm 4 mps 753 mmHg 61%
    14:00 +14°C° 0 mm 5 mps 752 mmHg 56%
    15:00 +13°C° 0 mm 5 mps 753 mmHg 59%
    16:00 +12°C° 0 mm 5 mps 753 mmHg 62%
    17:00 +10°C° 0 mm 6 mps 754 mmHg 65%
    18:00 +10°C° 0 mm 6 mps 754 mmHg 63%
    19:00 +9°C° 0 mm 6 mps 755 mmHg 60%
    20:00 +8°C° 0 mm 7 mps 755 mmHg 58%
    21:00 +8°C° 0 mm 6 mps 756 mmHg 61%
    22:00 +7°C° 0 mm 6 mps 756 mmHg 64%
    23:00 +5°C° 0 mm 6 mps 757 mmHg 67%

    3 February, Monday

    Time Temperature Precipitation Wind Pressure Humidity
    00:00 +5°C° 0 mm 6 mps 757 mmHg 67%
    01:00 +5°C° 0 mm 5 mps 757 mmHg 68%
    02:00 +5°C° 0 mm 5 mps 758 mmHg 69%
    03:00 +5°C° 0 mm 5 mps 758 mmHg 70%
    04:00 +3°C° 0 mm 5 mps 758 mmHg 71%
    05:00 +4°C° 0 mm 4 mps 758 mmHg 72%
    06:00 +4°C° 0 mm 4 mps 758 mmHg 73%
    07:00 +4°C° 0 mm 4 mps 758 mmHg 73%
    08:00 +4°C° 0 mm 3 mps 759 mmHg 74%
    09:00 +5°C° 0 mm 3 mps 759 mmHg 67%
    10:00 +8°C° 0 mm 3 mps 759 mmHg 61%
    11:00 +9°C° 0 mm 3 mps 759 mmHg 55%
    12:00 +10°C° 0 mm 3 mps 759 mmHg 52%
    13:00 +10°C° 0 mm 3 mps 758 mmHg 50%
    14:00 +11°C° 0 mm 4 mps 758 mmHg 47%
    15:00 +11°C° 0 mm 3 mps 757 mmHg 50%
    16:00 +10°C° 0 mm 3 mps 757 mmHg 52%
    17:00 +10°C° 0 mm 3 mps 757 mmHg 55%
    18:00 +9°C° 0 mm 3 mps 757 mmHg 58%
    19:00 +8°C° 0 mm 3 mps 757 mmHg 61%
    20:00 +8°C° 0 mm 3 mps 757 mmHg 63%
    21:00 +8°C° 0 mm 3 mps 757 mmHg 64%
    22:00 +8°C° 0 mm 3 mps 757 mmHg 64%
    23:00 +8°C° 0 mm 3 mps 757 mmHg 65%
    Show more